Worcester, MA

5:05 PM EDT on April 25, 2018 (GMT -0400)
Worcester Regional

Weather History for KORH - May, 2014

Change the Weather History Date:

Saturday, May 3, 2014

  Actual Average Record
Temperature  
Mean Temperature 53 °F 53 °F  
Max Temperature 64 °F 62 °F 87 °F (2001)
Min Temperature 42 °F 43 °F 28 °F (1946)
Degree Days  
Heating Degree Days 12 13  
Month to date heating degree days 35 39  
Since 1 July heating degree days 6800 6386  
Cooling Degree Days 0 0  
Month to date cooling degree days 0 0  
Year to date cooling degree days 0 3  
Growing Degree Days 2 (Base 50)    
Moisture  
Dew Point 37 °F    
Average Humidity 53    
Maximum Humidity 76    
Minimum Humidity 30    
Precipitation  
Precipitation T in 0.12 in 2.24 in (1934)
Month to date precipitation 0.83 0.37  
Year to date precipitation 17.87 15.41  
Sea Level Pressure  
Sea Level Pressure 29.80 in    
Wind  
Wind Speed 9 mph (WSW)    
Max Wind Speed 18 mph    
Max Gust Speed 23 mph    
Visibility 10 miles    
Events Rain    
T = Trace of Precipitation, MM = Missing Value Source: NWS Daily Summary

Daily Weather History Graph

Daily Weather History Graph

Search for Another Location

Airport or City:

Astronomy

May. 03, 2014 Rise Set
Actual Time 5:40 AM EDT 7:49 PM EDT
Civil Twilight 5:09 AM EDT 8:20 PM EDT
Nautical Twilight 4:31 AM EDT 8:58 PM EDT
Astronomical Twilight 3:50 AM EDT 9:39 PM EDT
Moon 9:06 AM EDT (5/3) 11:53 PM EDT (5/3)
Length of Visible Light 15h 10m
Length of Day
14h 08m
Waxing Crescent, 19% of the Moon is Illuminated
May 3
Waxing Crescent
May 6
First Quarter
May 14
Full
May 21
Last Quarter
May 28
New

Hourly Weather History & Observations

Time (EDT) Temp. Windchill Dew Point Humidity Pressure Visibility Wind Dir Wind Speed Gust Speed Precip Events Conditions
12:54 AM 50.0 °F - 37.0 °F 61% 29.83 in 10.0 mi West 6.9 mph - N/A   Overcast
1:54 AM 48.0 °F - 37.0 °F 66% 29.83 in 10.0 mi WNW 8.1 mph - N/A   Mostly Cloudy
2:54 AM 46.9 °F - 35.1 °F 63% 29.83 in 10.0 mi West 6.9 mph - N/A   Clear
3:54 AM 46.9 °F - 35.1 °F 63% 29.85 in 10.0 mi WNW 8.1 mph - N/A   Clear
4:54 AM 45.0 °F 41.8 °F 35.1 °F 68% 29.85 in 10.0 mi West 5.8 mph - N/A   Clear
5:54 AM 42.8 °F 39.3 °F 35.6 °F 76% 29.85 in 10.0 mi WSW 5.8 mph - N/A   Mostly Cloudy
6:54 AM 48.0 °F - 37.9 °F 68% 29.87 in 10.0 mi West 5.8 mph - N/A   Scattered Clouds
7:54 AM 51.1 °F - 37.9 °F 61% 29.87 in 10.0 mi SW 5.8 mph - N/A   Overcast
8:54 AM 53.1 °F - 37.9 °F 57% 29.88 in 10.0 mi West 8.1 mph - N/A   Overcast
9:54 AM 55.0 °F - 37.9 °F 53% 29.87 in 10.0 mi West 10.4 mph - N/A   Overcast
10:54 AM 57.9 °F - 37.9 °F 47% 29.85 in 10.0 mi Variable 5.8 mph - N/A   Overcast
11:54 AM 60.1 °F - 37.9 °F 44% 29.81 in 10.0 mi SSW 6.9 mph - N/A   Mostly Cloudy
12:54 PM 61.0 °F - 36.0 °F 39% 29.80 in 10.0 mi WSW 10.4 mph - N/A   Overcast
1:54 PM 62.1 °F - 34.0 °F 35% 29.78 in 10.0 mi SW 9.2 mph - N/A   Overcast
2:54 PM 63.0 °F - 30.9 °F 30% 29.76 in 10.0 mi West 8.1 mph - N/A   Overcast
3:54 PM 62.6 °F - 33.8 °F 34% 29.74 in 10.0 mi WSW 11.5 mph 17.3 mph N/A   Overcast
4:54 PM 62.1 °F - 35.1 °F 37% 29.74 in 10.0 mi WSW 11.5 mph - N/A   Overcast
5:54 PM 62.1 °F - 35.1 °F 37% 29.73 in 10.0 mi SW 10.4 mph - N/A   Overcast
6:54 PM 61.0 °F - 36.0 °F 39% 29.74 in 10.0 mi SW 13.8 mph - N/A   Scattered Clouds
7:54 PM 57.9 °F - 37.9 °F 47% 29.75 in 10.0 mi SW 11.5 mph - N/A   Scattered Clouds
8:54 PM 57.0 °F - 39.0 °F 51% 29.76 in 10.0 mi SW 10.4 mph - N/A   Overcast
9:54 PM 55.0 °F - 41.0 °F 59% 29.76 in 10.0 mi WSW 8.1 mph - 0.00 in Rain Light Rain
10:54 PM 54.0 °F - 39.9 °F 59% 29.75 in 10.0 mi SW 10.4 mph - 0.00 in   Overcast
11:54 PM 53.1 °F - 39.9 °F 61% 29.73 in 10.0 mi WSW 9.2 mph - N/A   Mostly Cloudy